18-06-2023, 00:00:07,    123,    0.0,   16.5,   0.00,   0.00, 1008.9,   62.6, -999.0
18-06-2023, 00:00:17,    123,    0.0,   16.5,   0.00,   0.00, 1008.9,   62.7, -999.0
18-06-2023, 00:00:27,    123,    0.0,   16.5,   0.00,   0.00, 1008.9,   62.6, -999.0
18-06-2023, 00:00:37,    124,    0.0,   16.4,   0.00,   0.00, 1008.9,   62.6, -999.0
18-06-2023, 00:00:47,    123,    0.0,   16.5,   0.00,   0.00, 1008.9,   62.6, -999.0
18-06-2023, 00:00:57,    123,    0.0,   16.4,   0.00,   0.00, 1008.9,   62.8, -999.0
18-06-2023, 00:01:07,    123,    0.0,   16.4,   0.00,   0.00, 1008.9,   62.6, -999.0
18-06-2023, 00:01:17,    123,    0.0,   16.4,   0.00,   0.00, 1008.9,   62.7, -999.0
18-06-2023, 00:01:27,    124,    0.0,   16.4,   0.00,   0.00, 1008.9,   62.9, -999.0
18-06-2023, 00:01:37,    124,    0.0,   16.3,   0.00,   0.00, 1008.9,   62.8, -999.0
18-06-2023, 00:01:47,    123,    0.0,   16.3,   0.00,   0.00, 1008.9,   63.0, -999.0
18-06-2023, 00:01:57,    124,    0.0,   16.3,   0.00,   0.00, 1008.9,   63.1, -999.0
18-06-2023, 00:02:07,    123,    0.0,   16.3,   0.00,   0.00, 1008.9,   63.1, -999.0
18-06-2023, 00:02:17,    123,    0.0,   16.3,   0.00,   0.00, 1008.9,   63.1, -999.0
18-06-2023, 00:02:27,    124,    0.0,   16.2,   0.00,   0.00, 1008.9,   63.0, -999.0
18-06-2023, 00:02:37,    123,    0.0,   16.3,   0.00,   0.00, 1008.9,   63.1, -999.0
18-06-2023, 00:02:46,    123,    0.0,   16.3,   0.00,   0.00, 1008.9,   63.0, -999.0
18-06-2023, 00:02:57,    123,    0.0,   16.3,   0.00,   0.00, 1008.9,   63.2, -999.0
18-06-2023, 00:03:07,    123,    0.0,   16.1,   0.00,   0.00, 1008.9,   63.3, -999.0
18-06-2023, 00:03:16,    123,    0.0,   16.1,   0.00,   0.00, 1008.9,   63.3, -999.0
18-06-2023, 00:03:28,    123,    0.0,   16.2,   0.00,   0.00, 1008.9,   63.3, -999.0
18-06-2023, 00:03:37,    124,    0.0,   16.2,   0.00,   0.00, 1008.9,   63.3, -999.0
18-06-2023, 00:03:46,    123,    0.0,   16.1,   0.00,   0.00, 1008.9,   63.3, -999.0
18-06-2023, 00:03:56,    123,    0.0,   16.1,   0.00,   0.00, 1008.9,   63.5, -999.0
18-06-2023, 00:04:06,    124,    0.0,   16.1,   0.00,   0.00, 1008.9,   63.6, -999.0
18-06-2023, 00:04:17,    124,    0.0,   16.1,   0.00,   0.00, 1008.9,   63.6, -999.0
18-06-2023, 00:04:26,    124,    0.0,   16.1,   0.00,   0.00, 1008.8,   63.7, -999.0
18-06-2023, 00:04:36,    123,    0.0,   16.1,   0.00,   0.00, 1008.9,   63.7, -999.0
18-06-2023, 00:04:46,    123,    0.0,   16.1,   0.00,   0.00, 1008.9,   63.6, -999.0
18-06-2023, 00:04:56,    123,    0.0,   16.1,   0.00,   0.00, 1008.9,   63.6, -999.0
18-06-2023, 00:05:06,    124,    0.0,   16.2,   0.00,   0.00, 1008.9,   63.8, -999.0
18-06-2023, 00:05:16,    124,    0.0,   16.1,   0.00,   0.00, 1008.9,   63.8, -999.0
18-06-2023, 00:05:26,    123,    0.0,   16.1,   0.00,   0.00, 1008.9,   63.9, -999.0
18-06-2023, 00:05:36,    123,    0.0,   16.1,   0.00,   0.00, 1008.9,   63.9, -999.0
18-06-2023, 00:05:46,    124,    0.0,   16.1,   0.00,   0.00, 1008.9,   63.9, -999.0
18-06-2023, 00:05:56,    124,    0.0,   16.1,   0.00,   0.00, 1008.9,   64.0, -999.0
18-06-2023, 00:06:06,    123,    0.0,   16.0,   0.00,   0.00, 1008.9,   64.1, -999.0
18-06-2023, 00:06:16,    124,    0.0,   16.0,   0.00,   0.00, 1008.9,   64.2, -999.0
18-06-2023, 00:06:26,    123,    0.0,   16.0,   0.00,   0.00, 1008.9,   64.0, -999.0
18-06-2023, 00:06:36,    124,    0.0,   16.1,   0.00,   0.00, 1008.9,   64.1, -999.0
18-06-2023, 00:06:46,    124,    0.0,   16.1,   0.00,   0.00, 1008.9,   64.3, -999.0
18-06-2023, 00:06:56,    124,    0.0,   16.1,   0.00,   0.00, 1008.9,   64.2, -999.0
18-06-2023, 00:07:06,    123,    0.0,   16.1,   0.00,   0.00, 1008.9,   64.2, -999.0
18-06-2023, 00:07:16,    124,    0.0,   16.1,   0.00,   0.00, 1008.9,   64.3, -999.0
18-06-2023, 00:07:26,    124,    0.0,   16.1,   0.00,   0.00, 1008.9,   64.3, -999.0
18-06-2023, 00:07:36,    124,    0.0,   16.0,   0.00,   0.00, 1008.9,   64.2, -999.0
18-06-2023, 00:07:46,    123,    0.0,   16.0,   0.00,   0.00, 1008.9,   64.3, -999.0
18-06-2023, 00:07:56,    124,    0.0,   16.0,   0.00,   0.00, 1008.9,   64.4, -999.0
18-06-2023, 00:08:06,    123,    0.0,   16.0,   0.00,   0.00, 1008.9,   64.4, -999.0
18-06-2023, 00:08:16,    123,    0.0,   15.9,   0.00,   0.00, 1008.9,   64.5, -999.0
18-06-2023, 00:08:26,    123,    0.0,   15.9,   0.00,   0.00, 1008.8,   64.5, -999.0
18-06-2023, 00:08:36,    123,    0.0,   15.9,   0.00,   0.00, 1008.8,   64.5, -999.0
18-06-2023, 00:08:46,    124,    0.0,   15.9,   0.00,   0.00, 1008.8,   64.6, -999.0
18-06-2023, 00:08:56,    123,    0.0,   15.9,   0.00,   0.00, 1008.8,   64.7, -999.0
18-06-2023, 00:09:06,    124,    0.0,   15.8,   0.00,   0.00, 1008.8,   64.7, -999.0
18-06-2023, 00:09:15,    123,    0.0,   15.8,   0.00,   0.00, 1008.9,   64.8, -999.0
18-06-2023, 00:09:26,    123,    0.0,   15.8,   0.00,   0.00, 1008.8,   65.0, -999.0
18-06-2023, 00:09:36,    123,    0.0,   15.8,   0.00,   0.00, 1008.9,   65.0, -999.0
18-06-2023, 00:09:46,    124,    0.0,   15.8,   0.00,   0.00, 1008.8,   65.1, -999.0
18-06-2023, 00:09:55,    124,    0.0,   15.8,   0.00,   0.00, 1008.8,   65.0, -999.0
18-06-2023, 00:10:06,    124,    0.0,   15.7,   0.00,   0.00, 1008.9,   65.1, -999.0
18-06-2023, 00:10:16,    123,    0.0,   15.7,   0.00,   0.00, 1008.8,   65.1, -999.0
18-06-2023, 00:10:25,    123,    0.0,   15.7,   0.00,   0.00, 1008.8,   65.2, -999.0
18-06-2023, 00:10:35,    123,    0.0,   15.7,   0.00,   0.00, 1008.8,   65.3, -999.0
18-06-2023, 00:10:46,    123,    0.0,   15.7,   0.00,   0.00, 1008.8,   65.4, -999.0
18-06-2023, 00:10:55,    123,    0.0,   15.8,   0.00,   0.00, 1008.8,   65.5, -999.0
18-06-2023, 00:11:05,    124,    0.0,   15.8,   0.00,   0.00, 1008.8,   65.5, -999.0
18-06-2023, 00:11:16,    124,    0.0,   15.8,   0.00,   0.00, 1008.8,   65.5, -999.0
18-06-2023, 00:11:26,    123,    0.0,   15.7,   0.00,   0.00, 1008.8,   65.5, -999.0
18-06-2023, 00:11:35,    123,    0.0,   15.7,   0.00,   0.00, 1008.8,   65.4, -999.0
18-06-2023, 00:11:45,    123,    0.0,   15.7,   0.00,   0.00, 1008.8,   65.5, -999.0
18-06-2023, 00:11:56,    124,    0.0,   15.7,   0.00,   0.00, 1008.8,   65.4, -999.0
18-06-2023, 00:12:05,    123,    0.0,   15.7,   0.00,   0.00, 1008.8,   65.4, -999.0
18-06-2023, 00:12:15,    124,    0.0,   15.8,   0.00,   0.00, 1008.8,   65.4, -999.0
18-06-2023, 00:12:25,    123,    0.0,   15.8,   0.00,   0.00, 1008.8,   65.5, -999.0
18-06-2023, 00:12:35,    123,    0.0,   15.7,   0.00,   0.00, 1008.8,   65.6, -999.0
18-06-2023, 00:12:45,    123,    0.0,   15.8,   0.00,   0.00, 1008.8,   65.5, -999.0
18-06-2023, 00:12:55,    123,    0.0,   15.8,   0.00,   0.00, 1008.8,   65.7, -999.0
18-06-2023, 00:13:05,    124,    0.0,   15.8,   0.00,   0.00, 1008.9,   65.6, -999.0
18-06-2023, 00:13:15,    126,    0.0,   15.8,   0.00,   0.00, 1008.8,   65.8, -999.0
18-06-2023, 00:13:25,    124,    0.0,   15.8,   0.00,   0.00, 1008.8,   65.8, -999.0
18-06-2023, 00:13:35,    124,    0.0,   15.9,   0.00,   0.00, 1008.8,   65.7, -999.0
18-06-2023, 00:13:45,    124,    0.0,   15.9,   0.00,   0.00, 1008.8,   65.8, -999.0
18-06-2023, 00:13:55,    124,    0.0,   16.0,   0.00,   0.00, 1008.8,   65.7, -999.0
18-06-2023, 00:14:05,    123,    0.0,   15.9,   0.00,   0.00, 1008.8,   65.6, -999.0
18-06-2023, 00:14:15,    124,    0.0,   15.9,   0.00,   0.00, 1008.8,   65.6, -999.0
18-06-2023, 00:14:25,    124,    0.0,   16.0,   0.00,   0.00, 1008.8,   65.5, -999.0
18-06-2023, 00:14:35,    123,    0.0,   15.9,   0.00,   0.00, 1008.9,   65.5, -999.0
18-06-2023, 00:14:45,    124,    0.0,   15.9,   0.00,   0.00, 1008.8,   65.6, -999.0
18-06-2023, 00:14:55,    124,    0.0,   16.0,   0.00,   0.00, 1008.8,   65.6, -999.0
18-06-2023, 00:15:05,    122,    0.0,   16.0,   0.00,   0.00, 1008.8,   65.4, -999.0
18-06-2023, 00:15:15,    123,    0.0,   16.0,   0.00,   0.00, 1008.8,   65.4, -999.0
18-06-2023, 00:15:25,    124,    0.0,   16.0,   0.00,   0.00, 1008.8,   65.3, -999.0
18-06-2023, 00:15:35,    124,    0.0,   16.1,   0.00,   0.00, 1008.8,   65.3, -999.0
18-06-2023, 00:15:45,    123,    0.0,   15.9,   0.00,   0.00, 1008.8,   65.2, -999.0
18-06-2023, 00:15:55,    124,    0.0,   16.0,   0.00,   0.00, 1008.8,   65.4, -999.0
18-06-2023, 00:16:05,    124,    0.0,   15.9,   0.00,   0.00, 1008.8,   65.4, -999.0
18-06-2023, 00:16:15,    123,    0.0,   16.0,   0.00,   0.00, 1008.8,   65.3, -999.0
18-06-2023, 00:16:25,    123,    0.0,   16.0,   0.00,   0.00, 1008.8,   65.4, -999.0
18-06-2023, 00:16:35,    123,    0.0,   16.0,   0.00,   0.00, 1008.8,   65.2, -999.0
18-06-2023, 00:16:45,    124,    0.0,   16.0,   0.00,   0.00, 1008.8,   65.3, -999.0
18-06-2023, 00:16:54,    123,    0.0,   15.9,   0.00,   0.00, 1008.8,   65.5, -999.0
18-06-2023, 00:17:05,    124,    0.0,   16.0,   0.00,   0.00, 1008.8,   65.4, -999.0
18-06-2023, 00:17:15,    124,    0.0,   16.0,   0.00,   0.00, 1008.8,   65.4, -999.0
18-06-2023, 00:17:24,    124,    0.0,   16.0,   0.00,   0.00, 1008.8,   65.5, -999.0
18-06-2023, 00:17:34,    123,    0.0,   16.0,   0.00,   0.00, 1008.8,   65.5, -999.0
18-06-2023, 00:17:45,    124,    0.0,   16.0,   0.00,   0.00, 1008.8,   65.5, -999.0
18-06-2023, 00:17:55,    123,    0.0,   16.0,   0.00,   0.00, 1008.8,   65.5, -999.0
18-06-2023, 00:18:04,    123,    0.0,   16.0,   0.00,   0.00, 1008.8,   65.6, -999.0
18-06-2023, 00:18:14,    123,    0.0,   16.0,   0.00,   0.00, 1008.8,   65.6, -999.0
18-06-2023, 00:18:25,    124,    0.0,   16.1,   0.00,   0.00, 1008.8,   65.6, -999.0
18-06-2023, 00:18:34,    124,    0.0,   16.0,   0.00,   0.00, 1008.8,   65.5, -999.0
18-06-2023, 00:18:44,    123,    0.0,   16.0,   0.00,   0.00, 1008.8,   65.4, -999.0
18-06-2023, 00:18:55,    123,    0.0,   16.0,   0.00,   0.00, 1008.8,   65.4, -999.0
18-06-2023, 00:19:04,    124,    0.0,   16.0,   0.00,   0.00, 1008.8,   65.5, -999.0
18-06-2023, 00:19:14,    123,    0.0,   16.0,   0.00,   0.00, 1008.8,   65.5, -999.0
18-06-2023, 00:19:24,    123,    0.0,   16.0,   0.00,   0.00, 1008.8,   65.6, -999.0
18-06-2023, 00:19:34,    123,    0.0,   16.0,   0.00,   0.00, 1008.8,   65.6, -999.0
18-06-2023, 00:19:44,    123,    0.0,   16.0,   0.00,   0.00, 1008.8,   65.4, -999.0
18-06-2023, 00:19:54,    124,    0.0,   16.0,   0.00,   0.00, 1008.8,   65.5, -999.0
18-06-2023, 00:20:04,    124,    0.0,   16.0,   0.00,   0.00, 1008.8,   65.6, -999.0
18-06-2023, 00:20:14,    124,    0.0,   16.0,   0.00,   0.00, 1008.8,   65.5, -999.0
18-06-2023, 00:20:24,    124,    0.0,   16.0,   0.00,   0.00, 1008.8,   65.6, -999.0
18-06-2023, 00:20:34,    123,    0.0,   16.0,   0.00,   0.00, 1008.8,   65.5, -999.0
18-06-2023, 00:20:44,    125,    0.0,   16.0,   0.00,   0.00, 1008.8,   65.5, -999.0
18-06-2023, 00:20:54,    123,    0.0,   16.0,   0.00,   0.00, 1008.8,   65.6, -999.0
18-06-2023, 00:21:04,    124,    0.0,   16.0,   0.00,   0.00, 1008.8,   65.6, -999.0
18-06-2023, 00:21:14,    126,    0.0,   15.9,   0.00,   0.00, 1008.8,   65.6, -999.0
18-06-2023, 00:21:24,    124,    0.0,   15.9,   0.00,   0.00, 1008.8,   65.6, -999.0
18-06-2023, 00:21:34,    123,    0.0,   16.0,   0.00,   0.00, 1008.8,   65.8, -999.0
18-06-2023, 00:21:44,    123,    0.0,   16.0,   0.00,   0.00, 1008.8,   65.7, -999.0
18-06-2023, 00:21:54,    124,    0.0,   16.1,   0.00,   0.00, 1008.8,   65.7, -999.0
18-06-2023, 00:22:04,    123,    0.0,   16.0,   0.00,   0.00, 1008.8,   65.7, -999.0
18-06-2023, 00:22:14,    124,    0.0,   16.1,   0.00,   0.00, 1008.8,   65.8, -999.0
18-06-2023, 00:22:24,    124,    0.0,   16.0,   0.00,   0.00, 1008.8,   65.7, -999.0
18-06-2023, 00:22:34,    123,    0.0,   16.0,   0.00,   0.00, 1008.8,   65.7, -999.0
18-06-2023, 00:22:44,    123,    0.0,   16.0,   0.00,   0.00, 1008.8,   65.7, -999.0
18-06-2023, 00:22:54,    121,    0.0,   16.1,   0.00,   0.00, 1008.8,   65.7, -999.0
18-06-2023, 00:23:04,    124,    0.0,   15.9,   0.00,   0.00, 1008.8,   65.7, -999.0
18-06-2023, 00:23:14,    123,    0.0,   16.0,   0.00,   0.00, 1008.8,   65.7, -999.0
18-06-2023, 00:23:24,    124,    0.0,   16.0,   0.00,   0.00, 1008.8,   65.8, -999.0
18-06-2023, 00:23:34,    124,    0.0,   16.0,   0.00,   0.00, 1008.8,   65.7, -999.0
18-06-2023, 00:23:44,    124,    0.0,   16.0,   0.00,   0.00, 1008.8,   65.6, -999.0
18-06-2023, 00:23:54,    124,    0.0,   16.0,   0.00,   0.00, 1008.8,   65.6, -999.0
18-06-2023, 00:24:03,    123,    0.0,   15.9,   0.00,   0.00, 1008.8,   65.7, -999.0
18-06-2023, 00:24:14,    123,    0.0,   16.0,   0.00,   0.00, 1008.8,   65.7, -999.0
18-06-2023, 00:24:24,    124,    0.0,   15.9,   0.00,   0.00, 1008.8,   65.7, -999.0
18-06-2023, 00:24:33,    123,    0.0,   16.0,   0.00,   0.00, 1008.8,   65.9, -999.0
18-06-2023, 00:24:44,    123,    0.0,   15.9,   0.00,   0.00, 1008.8,   65.7, -999.0
18-06-2023, 00:24:54,    123,    0.0,   16.0,   0.00,   0.00, 1008.8,   65.7, -999.0
18-06-2023, 00:25:04,    123,    0.0,   16.0,   0.00,   0.00, 1008.8,   65.8, -999.0
18-06-2023, 00:25:13,    124,    0.0,   16.0,   0.00,   0.00, 1008.8,   65.9, -999.0
18-06-2023, 00:25:24,    124,    0.0,   15.9,   0.00,   0.00, 1008.8,   65.8, -999.0
18-06-2023, 00:25:34,    124,    0.0,   15.9,   0.00,   0.00, 1008.8,   65.9, -999.0
18-06-2023, 00:25:43,    123,    0.0,   16.0,   0.00,   0.00, 1008.8,   65.8, -999.0
18-06-2023, 00:25:53,    123,    0.0,   16.0,   0.00,   0.00, 1008.8,   65.9, -999.0
18-06-2023, 00:26:04,    123,    0.0,   15.9,   0.00,   0.00, 1008.8,   66.0, -999.0
18-06-2023, 00:26:13,    123,    0.0,   15.9,   0.00,   0.00, 1008.8,   65.8, -999.0
18-06-2023, 00:26:23,    124,    0.0,   15.9,   0.00,   0.00, 1008.8,   65.9, -999.0
18-06-2023, 00:26:33,    123,    0.0,   15.8,   0.00,   0.00, 1008.8,   65.9, -999.0
18-06-2023, 00:26:43,    123,    0.0,   15.9,   0.00,   0.00, 1008.8,   65.9, -999.0
18-06-2023, 00:26:53,    123,    0.0,   15.9,   0.00,   0.00, 1008.8,   65.9, -999.0
18-06-2023, 00:27:03,    123,    0.0,   15.9,   0.00,   0.00, 1008.8,   66.0, -999.0
18-06-2023, 00:27:13,    124,    0.0,   15.9,   0.00,   0.00, 1008.8,   66.0, -999.0
18-06-2023, 00:27:23,    123,    0.0,   15.9,   0.00,   0.00, 1008.8,   66.0, -999.0
18-06-2023, 00:27:33,    123,    0.0,   15.9,   0.00,   0.00, 1008.8,   66.0, -999.0
18-06-2023, 00:27:43,    123,    0.0,   15.9,   0.00,   0.00, 1008.8,   66.1, -999.0
18-06-2023, 00:27:53,    123,    0.0,   15.9,   0.00,   0.00, 1008.8,   66.1, -999.0
18-06-2023, 00:28:03,    124,    0.0,   15.9,   0.00,   0.00, 1008.8,   66.1, -999.0
18-06-2023, 00:28:13,    123,    0.0,   15.9,   0.00,   0.00, 1008.8,   66.1, -999.0
18-06-2023, 00:28:23,    124,    0.0,   16.0,   0.00,   0.00, 1008.8,   66.2, -999.0
18-06-2023, 00:28:33,    123,    0.0,   16.0,   0.00,   0.00, 1008.8,   66.1, -999.0
18-06-2023, 00:28:43,    124,    0.0,   15.9,   0.00,   0.00, 1008.8,   66.2, -999.0
18-06-2023, 00:28:53,    123,    0.0,   16.0,   0.00,   0.00, 1008.8,   66.2, -999.0
18-06-2023, 00:29:03,    124,    0.0,   16.0,   0.00,   0.00, 1008.8,   66.0, -999.0
18-06-2023, 00:29:13,    123,    0.0,   15.9,   0.00,   0.00, 1008.8,   66.1, -999.0
18-06-2023, 00:29:23,    123,    0.0,   15.9,   0.00,   0.00, 1008.8,   66.0, -999.0
18-06-2023, 00:29:33,    123,    0.0,   15.9,   0.00,   0.00, 1008.8,   66.0, -999.0
18-06-2023, 00:29:43,    124,    0.0,   15.9,   0.00,   0.00, 1008.8,   65.9, -999.0
18-06-2023, 00:29:53,    124,    0.0,   15.8,   0.00,   0.00, 1008.8,   66.0, -999.0
18-06-2023, 00:30:03,    123,    0.0,   15.9,   0.00,   0.00, 1008.9,   66.1, -999.0
18-06-2023, 00:30:13,    124,    0.0,   15.9,   0.00,   0.00, 1008.8,   66.1, -999.0
18-06-2023, 00:30:23,    123,    0.0,   15.9,   0.00,   0.00, 1008.8,   66.1, -999.0
18-06-2023, 00:30:33,    123,    0.0,   15.9,   0.00,   0.00, 1008.8,   66.2, -999.0
18-06-2023, 00:30:43,    123,    0.0,   15.9,   0.00,   0.00, 1008.8,   66.1, -999.0
18-06-2023, 00:30:53,    124,    0.0,   15.9,   0.00,   0.00, 1008.8,   66.1, -999.0
18-06-2023, 00:31:03,    124,    0.0,   15.9,   0.00,   0.00, 1008.8,   66.2, -999.0
18-06-2023, 00:31:12,    124,    0.0,   15.9,   0.00,   0.00, 1008.8,   66.3, -999.0
18-06-2023, 00:31:23,    124,    0.0,   15.8,   0.00,   0.00, 1008.8,   66.2, -999.0
18-06-2023, 00:31:33,    124,    0.0,   15.8,   0.00,   0.00, 1008.8,   66.1, -999.0
18-06-2023, 00:31:42,    123,    0.0,   15.9,   0.00,   0.00, 1008.8,   66.2, -999.0
18-06-2023, 00:31:53,    123,    0.0,   15.8,   0.00,   0.00, 1008.8,   66.2, -999.0
18-06-2023, 00:32:03,    123,    0.0,   15.8,   0.00,   0.00, 1008.8,   66.0, -999.0
18-06-2023, 00:32:13,    124,    0.0,   15.8,   0.00,   0.00, 1008.8,   66.3, -999.0
18-06-2023, 00:32:22,    124,    0.0,   15.8,   0.00,   0.00, 1008.8,   66.3, -999.0
18-06-2023, 00:32:33,    124,    0.0,   15.8,   0.00,   0.00, 1008.8,   66.3, -999.0
18-06-2023, 00:32:43,    124,    0.0,   15.8,   0.00,   0.00, 1008.8,   66.4, -999.0
18-06-2023, 00:32:52,    123,    0.0,   15.8,   0.00,   0.00, 1008.8,   66.4, -999.0
18-06-2023, 00:33:02,    123,    0.0,   15.9,   0.00,   0.00, 1008.8,   66.4, -999.0
18-06-2023, 00:33:13,    124,    0.0,   15.8,   0.00,   0.00, 1008.8,   66.4, -999.0
18-06-2023, 00:33:22,    124,    0.0,   15.9,   0.00,   0.00, 1008.8,   66.5, -999.0
18-06-2023, 00:33:32,    123,    0.0,   15.8,   0.00,   0.00, 1008.8,   66.5, -999.0
18-06-2023, 00:33:42,    123,    0.0,   15.9,   0.00,   0.00, 1008.8,   66.6, -999.0
18-06-2023, 00:33:52,    122,    0.0,   15.9,   0.00,   0.00, 1008.9,   66.5, -999.0
18-06-2023, 00:34:02,    123,    0.0,   15.9,   0.00,   0.00, 1008.8,   66.5, -999.0
18-06-2023, 00:34:12,    123,    0.0,   15.8,   0.00,   0.00, 1008.9,   66.6, -999.0
18-06-2023, 00:34:22,    123,    0.0,   15.8,   0.00,   0.00, 1008.9,   66.6, -999.0
18-06-2023, 00:34:32,    123,    0.0,   15.9,   0.00,   0.00, 1008.9,   66.7, -999.0
18-06-2023, 00:34:42,    123,    0.0,   15.8,   0.00,   0.00, 1008.9,   66.6, -999.0
18-06-2023, 00:34:52,    124,    0.0,   15.8,   0.00,   0.00, 1008.8,   66.6, -999.0
18-06-2023, 00:35:02,    124,    0.0,   15.8,   0.00,   0.00, 1008.8,   66.7, -999.0
18-06-2023, 00:35:12,    123,    0.0,   15.8,   0.00,   0.00, 1008.8,   66.6, -999.0
18-06-2023, 00:35:22,    124,    0.0,   15.8,   0.00,   0.00, 1008.9,   66.7, -999.0
18-06-2023, 00:35:32,    123,    0.0,   15.8,   0.00,   0.00, 1008.8,   66.8, -999.0
18-06-2023, 00:35:42,    126,    0.0,   15.8,   0.00,   0.00, 1008.8,   66.7, -999.0
18-06-2023, 00:35:52,    126,    0.0,   15.8,   0.00,   0.00, 1008.9,   66.7, -999.0
18-06-2023, 00:36:02,    123,    0.0,   15.8,   0.00,   0.00, 1008.9,   66.7, -999.0
18-06-2023, 00:36:12,    124,    0.0,   15.8,   0.00,   0.00, 1008.8,   66.8, -999.0
18-06-2023, 00:36:22,    123,    0.0,   15.8,   0.00,   0.00, 1008.8,   67.0, -999.0
18-06-2023, 00:36:32,    124,    0.0,   15.9,   0.00,   0.00, 1008.8,   67.0, -999.0
18-06-2023, 00:36:42,    124,    0.0,   15.9,   0.00,   0.00, 1008.8,   67.1, -999.0
18-06-2023, 00:36:52,    123,    0.0,   15.8,   0.00,   0.00, 1008.8,   66.9, -999.0
18-06-2023, 00:37:02,    123,    0.0,   15.9,   0.00,   0.00, 1008.8,   66.9, -999.0
18-06-2023, 00:37:12,    124,    0.0,   15.9,   0.00,   0.00, 1008.8,   66.8, -999.0
18-06-2023, 00:37:22,    123,    0.0,   15.9,   0.00,   0.00, 1008.8,   66.8, -999.0
18-06-2023, 00:37:32,    123,    0.0,   15.9,   0.00,   0.00, 1008.8,   66.7, -999.0
18-06-2023, 00:37:42,    123,    0.0,   15.8,   0.00,   0.00, 1008.8,   66.7, -999.0
18-06-2023, 00:37:52,    123,    0.0,   15.8,   0.00,   0.00, 1008.8,   66.8, -999.0
18-06-2023, 00:38:02,    123,    0.0,   15.8,   0.00,   0.00, 1008.8,   66.8, -999.0
18-06-2023, 00:38:12,    124,    0.0,   15.7,   0.00,   0.00, 1008.8,   66.9, -999.0
18-06-2023, 00:38:22,    123,    0.0,   15.7,   0.00,   0.00, 1008.8,   66.9, -999.0
18-06-2023, 00:38:32,    123,    0.0,   15.7,   0.00,   0.00, 1008.8,   66.9, -999.0
18-06-2023, 00:38:42,    123,    0.0,   15.6,   0.00,   0.00, 1008.8,   67.0, -999.0
18-06-2023, 00:38:51,    124,    0.0,   15.8,   0.00,   0.00, 1008.8,   66.9, -999.0
18-06-2023, 00:39:02,    124,    0.0,   15.7,   0.00,   0.00, 1008.8,   67.1, -999.0
18-06-2023, 00:39:12,    123,    0.0,   15.8,   0.00,   0.00, 1008.9,   66.9, -999.0
18-06-2023, 00:39:21,    123,    0.0,   15.8,   0.00,   0.00, 1008.8,   67.0, -999.0
18-06-2023, 00:39:31,    124,    0.0,   15.8,   0.00,   0.00, 1008.8,   67.0, -999.0
18-06-2023, 00:39:42,    123,    0.0,   15.8,   0.00,   0.00, 1008.9,   67.0, -999.0
18-06-2023, 00:39:52,    124,    0.0,   15.8,   0.00,   0.00, 1008.8,   67.0, -999.0
18-06-2023, 00:40:01,    123,    0.0,   15.8,   0.00,   0.00, 1008.8,   67.0, -999.0
18-06-2023, 00:40:11,    124,    0.0,   15.9,   0.00,   0.00, 1008.8,   67.0, -999.0
18-06-2023, 00:40:22,    124,    0.0,   15.8,   0.00,   0.00, 1008.8,   67.1, -999.0
18-06-2023, 00:40:31,    124,    0.0,   15.9,   0.00,   0.00, 1008.8,   67.0, -999.0
18-06-2023, 00:40:41,    123,    0.0,   15.9,   0.00,   0.00, 1008.9,   67.0, -999.0
18-06-2023, 00:40:51,    124,    0.0,   15.7,   0.00,   0.00, 1008.8,   67.2, -999.0
18-06-2023, 00:41:01,    123,    0.0,   15.8,   0.00,   0.00, 1008.8,   67.1, -999.0
18-06-2023, 00:41:11,    123,    0.0,   15.9,   0.00,   0.00, 1008.8,   67.0, -999.0
18-06-2023, 00:41:21,    123,    0.0,   15.9,   0.00,   0.00, 1008.8,   67.1, -999.0
18-06-2023, 00:41:31,    124,    0.0,   15.8,   0.00,   0.00, 1008.8,   67.2, -999.0
18-06-2023, 00:41:41,    123,    0.0,   15.8,   0.00,   0.00, 1008.8,   67.1, -999.0
18-06-2023, 00:41:51,    123,    0.0,   15.9,   0.00,   0.00, 1008.8,   67.1, -999.0
18-06-2023, 00:42:01,    123,    0.0,   15.8,   0.00,   0.00, 1008.8,   67.1, -999.0
18-06-2023, 00:42:11,    123,    0.0,   15.9,   0.00,   0.00, 1008.8,   67.0, -999.0
18-06-2023, 00:42:21,    123,    0.0,   15.9,   0.00,   0.00, 1008.8,   67.0, -999.0
18-06-2023, 00:42:31,    124,    0.0,   15.9,   0.00,   0.00, 1008.8,   66.9, -999.0
18-06-2023, 00:42:41,    124,    0.0,   15.9,   0.00,   0.00, 1008.8,   67.0, -999.0
18-06-2023, 00:42:51,    123,    0.0,   15.8,   0.00,   0.00, 1008.8,   67.1, -999.0
18-06-2023, 00:43:01,    123,    0.0,   15.9,   0.00,   0.00, 1008.8,   67.1, -999.0
18-06-2023, 00:43:11,    123,    0.0,   15.7,   0.00,   0.00, 1008.8,   67.0, -999.0
18-06-2023, 00:43:21,    123,    0.0,   15.8,   0.00,   0.00, 1008.8,   67.1, -999.0
18-06-2023, 00:43:31,    123,    0.0,   15.8,   0.00,   0.00, 1008.8,   67.2, -999.0
18-06-2023, 00:43:41,    124,    0.0,   15.7,   0.00,   0.00, 1008.8,   67.1, -999.0
18-06-2023, 00:43:51,    123,    0.0,   15.7,   0.00,   0.00, 1008.8,   67.3, -999.0
18-06-2023, 00:44:01,    123,    0.0,   15.7,   0.00,   0.00, 1008.8,   67.2, -999.0
18-06-2023, 00:44:11,    123,    0.0,   15.6,   0.00,   0.00, 1008.8,   67.3, -999.0
18-06-2023, 00:44:21,    123,    0.0,   15.7,   0.00,   0.00, 1008.8,   67.5, -999.0
18-06-2023, 00:44:31,    125,    0.0,   15.6,   0.00,   0.00, 1008.8,   67.5, -999.0
18-06-2023, 00:44:41,    123,    0.0,   15.7,   0.00,   0.00, 1008.8,   67.6, -999.0
18-06-2023, 00:44:51,    124,    0.0,   15.7,   0.00,   0.00, 1008.8,   67.8, -999.0
18-06-2023, 00:45:01,    121,    0.0,   15.6,   0.00,   0.00, 1008.8,   67.8, -999.0
18-06-2023, 00:45:11,    124,    0.0,   15.7,   0.00,   0.00, 1008.8,   67.9, -999.0
18-06-2023, 00:45:21,    123,    0.0,   15.7,   0.00,   0.00, 1008.8,   67.9, -999.0
18-06-2023, 00:45:31,    124,    0.0,   15.7,   0.00,   0.00, 1008.8,   67.9, -999.0
18-06-2023, 00:45:41,    123,    0.0,   15.6,   0.00,   0.00, 1008.8,   68.1, -999.0
18-06-2023, 00:45:51,    124,    0.0,   15.6,   0.00,   0.00, 1008.7,   68.2, -999.0
18-06-2023, 00:46:00,    124,    0.0,   15.7,   0.00,   0.00, 1008.8,   68.1, -999.0
18-06-2023, 00:46:11,    123,    0.0,   15.6,   0.00,   0.00, 1008.8,   68.2, -999.0
18-06-2023, 00:46:21,    123,    0.0,   15.6,   0.00,   0.00, 1008.8,   68.1, -999.0
18-06-2023, 00:46:30,    123,    0.0,   15.6,   0.00,   0.00, 1008.7,   68.3, -999.0
18-06-2023, 00:46:40,    123,    0.0,   15.6,   0.00,   0.00, 1008.8,   68.2, -999.0
18-06-2023, 00:46:51,    123,    0.0,   15.7,   0.00,   0.00, 1008.7,   68.2, -999.0